TimeCDT,TemperatureF,Dew PointF,Humidity,Sea Level PressureIn,VisibilityMPH,Wind Direction,Wind SpeedMPH,Gust SpeedMPH,PrecipitationIn,Events,Conditions,WindDirDegrees,DateUTC
12:15 AM,28.4,23.0,80,29.87,2.5,West,13.8,-,N/A,Snow,Light Snow,280,2013-03-12 05:15:00
12:35 AM,28.4,23.0,80,29.88,5.0,West,13.8,-,N/A,Snow,Light Snow,280,2013-03-12 05:35:00
12:55 AM,28.4,23.0,80,29.88,5.0,West,12.7,18.4,N/A,Snow,Light Snow,280,2013-03-12 05:55:00
1:15 AM,28.4,23.0,80,29.88,10.0,West,10.4,-,N/A,,Mostly Cloudy,280,2013-03-12 06:15:00
1:35 AM,28.4,21.2,74,29.88,10.0,WNW,10.4,20.7,N/A,,Scattered Clouds,290,2013-03-12 06:35:00
1:55 AM,26.6,21.2,80,29.89,10.0,West,11.5,17.3,N/A,,Clear,280,2013-03-12 06:55:00
2:15 AM,26.6,21.2,80,29.89,10.0,West,10.4,-,N/A,,Clear,280,2013-03-12 07:15:00
2:35 AM,26.6,19.4,74,29.91,10.0,West,10.4,-,N/A,,Clear,280,2013-03-12 07:35:00
2:55 AM,26.6,19.4,74,29.91,10.0,West,10.4,-,N/A,,Clear,280,2013-03-12 07:55:00
3:15 AM,26.6,19.4,74,29.92,10.0,West,9.2,-,N/A,,Clear,270,2013-03-12 08:15:00
3:35 AM,26.6,19.4,74,29.91,10.0,West,10.4,-,N/A,,Clear,270,2013-03-12 08:35:00
3:55 AM,26.6,19.4,74,29.91,10.0,West,9.2,-,N/A,,Clear,270,2013-03-12 08:55:00
4:15 AM,26.6,19.4,74,29.91,10.0,West,6.9,-,N/A,,Clear,270,2013-03-12 09:15:00
4:35 AM,24.8,19.4,80,29.91,10.0,West,8.1,-,N/A,,Clear,270,2013-03-12 09:35:00
4:55 AM,26.6,19.4,74,29.91,10.0,West,9.2,-,N/A,,Clear,270,2013-03-12 09:55:00
5:15 AM,26.6,19.4,74,29.91,10.0,West,9.2,-,N/A,,Clear,270,2013-03-12 10:15:00
5:35 AM,24.8,19.4,80,29.91,10.0,West,9.2,-,N/A,,Clear,260,2013-03-12 10:35:00
5:55 AM,24.8,19.4,80,29.91,10.0,West,6.9,-,N/A,,Clear,260,2013-03-12 10:55:00
6:15 AM,26.6,19.4,74,29.92,10.0,West,8.1,-,N/A,,Scattered Clouds,260,2013-03-12 11:15:00
6:35 AM,26.6,21.2,80,29.92,10.0,West,9.2,-,N/A,,Clear,260,2013-03-12 11:35:00
6:55 AM,26.6,21.2,80,29.92,10.0,WSW,8.1,-,N/A,,Mostly Cloudy,250,2013-03-12 11:55:00
7:15 AM,26.6,21.2,80,29.92,10.0,West,9.2,-,N/A,,Mostly Cloudy,270,2013-03-12 12:15:00
7:35 AM,26.6,21.2,80,29.92,10.0,West,9.2,-,N/A,,Mostly Cloudy,270,2013-03-12 12:35:00
7:55 AM,26.6,21.2,80,29.92,10.0,West,9.2,-,N/A,,Overcast,270,2013-03-12 12:55:00
8:15 AM,26.6,21.2,80,29.93,10.0,West,10.4,-,N/A,,Overcast,260,2013-03-12 13:15:00
8:35 AM,28.4,21.2,74,29.94,10.0,West,10.4,-,N/A,,Mostly Cloudy,270,2013-03-12 13:35:00
8:55 AM,28.4,23.0,80,29.93,10.0,West,10.4,-,N/A,,Overcast,270,2013-03-12 13:55:00
9:15 AM,30.2,23.0,75,29.93,10.0,West,9.2,-,N/A,,Overcast,260,2013-03-12 14:15:00
9:35 AM,30.2,24.8,80,29.93,10.0,West,11.5,16.1,N/A,,Mostly Cloudy,260,2013-03-12 14:35:00
9:55 AM,30.2,24.8,80,29.93,10.0,WSW,10.4,-,N/A,,Overcast,250,2013-03-12 14:55:00
10:15 AM,32.0,24.8,75,29.93,10.0,West,11.5,-,N/A,,Overcast,260,2013-03-12 15:15:00
10:35 AM,33.8,26.6,75,29.93,10.0,West,17.3,-,N/A,,Overcast,270,2013-03-12 15:35:00
10:55 AM,33.8,26.6,75,29.94,10.0,West,16.1,-,N/A,,Overcast,260,2013-03-12 15:55:00
11:15 AM,33.8,26.6,75,29.95,7.0,West,16.1,-,N/A,,Overcast,270,2013-03-12 16:15:00
11:35 AM,33.8,26.6,75,29.95,5.0,West,13.8,-,N/A,Snow,Light Snow,270,2013-03-12 16:35:00
11:55 AM,32.0,26.6,80,29.95,2.5,West,15.0,18.4,N/A,Snow,Light Snow,270,2013-03-12 16:55:00
12:15 PM,33.8,26.6,75,29.95,5.0,West,18.4,23.0,N/A,Snow,Light Snow,270,2013-03-12 17:15:00
12:35 PM,33.8,26.6,75,29.95,7.0,West,16.1,20.7,N/A,,Overcast,270,2013-03-12 17:35:00
12:55 PM,33.8,28.4,81,29.95,3.0,West,19.6,-,N/A,,Haze,270,2013-03-12 17:55:00
1:15 PM,33.8,28.4,81,29.95,1.2,West,17.3,21.9,N/A,Snow,Light Snow,270,2013-03-12 18:15:00
1:35 PM,35.6,28.4,75,29.95,3.0,West,16.1,20.7,N/A,Snow,Light Snow,280,2013-03-12 18:35:00
1:55 PM,35.6,28.4,75,29.94,2.5,West,18.4,23.0,N/A,Snow,Light Snow,270,2013-03-12 18:55:00
2:15 PM,33.8,28.4,81,29.94,0.5,West,15.0,-,N/A,Snow,Snow,270,2013-03-12 19:15:00
2:35 PM,32.0,26.6,80,29.94,5.0,NW,26.5,36.8,N/A,Snow,Light Snow,310,2013-03-12 19:35:00
2:55 PM,33.8,26.6,75,29.95,10.0,WNW,28.8,35.7,N/A,,Mostly Cloudy,290,2013-03-12 19:55:00
3:15 PM,32.0,24.8,75,29.96,10.0,WNW,23.0,34.5,N/A,,Scattered Clouds,290,2013-03-12 20:15:00
3:35 PM,32.0,24.8,75,29.96,10.0,NW,23.0,32.2,N/A,,Mostly Cloudy,310,2013-03-12 20:35:00
3:55 PM,32.0,23.0,69,29.98,10.0,WNW,23.0,34.5,N/A,,Overcast,300,2013-03-12 20:55:00
4:15 PM,30.2,23.0,75,29.98,7.0,WNW,21.9,28.8,N/A,,Mostly Cloudy,300,2013-03-12 21:15:00
4:35 PM,32.0,24.8,75,29.99,10.0,WNW,18.4,26.5,N/A,,Overcast,300,2013-03-12 21:35:00
4:55 PM,30.2,21.2,69,29.99,10.0,WNW,24.2,31.1,N/A,,Mostly Cloudy,290,2013-03-12 21:55:00
5:15 PM,30.2,19.4,64,30.00,10.0,WNW,27.6,34.5,N/A,,Mostly Cloudy,290,2013-03-12 22:15:00
5:35 PM,28.4,19.4,69,30.01,10.0,WNW,19.6,34.5,N/A,,Overcast,300,2013-03-12 22:35:00
5:55 PM,28.4,19.4,69,30.02,7.0,WNW,23.0,34.5,N/A,Snow,Light Snow,300,2013-03-12 22:55:00
6:15 PM,28.4,19.4,69,30.02,10.0,WNW,21.9,27.6,N/A,,Overcast,290,2013-03-12 23:15:00
6:35 PM,28.4,21.2,74,30.03,5.0,WNW,20.7,31.1,N/A,Snow,Light Snow,290,2013-03-12 23:35:00
6:55 PM,28.4,21.2,74,30.04,10.0,WNW,24.2,28.8,N/A,Snow,Light Snow,300,2013-03-12 23:55:00
7:15 PM,28.4,21.2,74,30.05,4.0,WNW,17.3,31.1,N/A,Snow,Light Snow,300,2013-03-13 00:15:00
7:35 PM,26.6,21.2,80,30.06,4.0,NW,13.8,24.2,N/A,Snow,Light Snow,310,2013-03-13 00:35:00
7:55 PM,26.6,19.4,74,30.06,5.0,WNW,20.7,31.1,N/A,Snow,Light Snow,300,2013-03-13 00:55:00
8:15 PM,26.6,19.4,74,30.07,10.0,WNW,17.3,25.3,N/A,,Overcast,300,2013-03-13 01:15:00
8:35 PM,26.6,19.4,74,30.08,10.0,WNW,20.7,28.8,N/A,,Overcast,300,2013-03-13 01:35:00
8:55 PM,26.6,19.4,74,30.08,10.0,WNW,24.2,31.1,N/A,,Overcast,300,2013-03-13 01:55:00
9:15 PM,26.6,19.4,74,30.09,10.0,WNW,18.4,24.2,N/A,,Overcast,300,2013-03-13 02:15:00
9:35 PM,26.6,19.4,74,30.09,10.0,WNW,17.3,28.8,N/A,,Overcast,300,2013-03-13 02:35:00
9:55 PM,26.6,19.4,74,30.10,10.0,WNW,16.1,24.2,N/A,,Mostly Cloudy,290,2013-03-13 02:55:00
10:15 PM,26.6,19.4,74,30.10,10.0,NW,19.6,28.8,N/A,,Overcast,310,2013-03-13 03:15:00
10:35 PM,26.6,19.4,74,30.11,10.0,WNW,18.4,26.5,N/A,,Overcast,300,2013-03-13 03:35:00
10:55 PM,26.6,19.4,74,30.12,10.0,WNW,17.3,25.3,N/A,,Overcast,300,2013-03-13 03:55:00
11:15 PM,24.8,17.6,74,30.12,10.0,NW,18.4,23.0,N/A,,Mostly Cloudy,310,2013-03-13 04:15:00
11:35 PM,24.8,17.6,74,30.12,10.0,WNW,15.0,26.5,N/A,,Scattered Clouds,300,2013-03-13 04:35:00
11:55 PM,24.8,17.6,74,30.13,10.0,WNW,16.1,-,N/A,,Scattered Clouds,300,2013-03-13 04:55:00